Home   Weather   Newport   Past weeks

Flag for United Kingdom Past Weather in Newport, Wales, United Kingdom — Yesterday and Last 2 Weeks

Now
48 °F

Broken clouds.


Feels Like: 42 °F
Forecast: 38 / 50 °F
Wind: 15 mph from North

Location: Bristol / Lulsgate

Current Time: Apr 24, 2017 at 8:15:24 pm

Latest Report: Apr 24, 2017 at 7:20 pm


Visibility: N/A

Pressure: 29.95 "Hg

Humidity: 71%

Dew Point: 39 °F

Location of NewportLocation

Past Weather in Newport — Graph

°F

Newport Temperature Yesterday

Maximum temperature yesterday: 59 °F (at 3:20 pm)
Minimum temperature yesterday: 41 °F (at 2:20 am)
Average temperature yesterday: 49 °F

High & Low Weather Summary for the Past Weeks

 TemperatureHumidityPressure
High59 °F (Apr 22, 1:50 pm)100% (Apr 10, 4:50 am)30.63 "Hg (Apr 10, 4:50 am)
Low34 °F (Apr 19, 4:50 am)38% (Apr 19, 3:20 pm)29.95 "Hg (Apr 24, 3:50 pm)
Average48 °F77%30.28 "Hg
* Reported Apr 9 7:50 pm — Apr 24 7:20 pm, Newport, Weather by CustomWeather, © 2017

Note: Actual official high and low records may vary slightly from our data, if they occured in-between our weather recording intervals... More about our weather records

Advertising

Newport Weather History for the Previous 24 Hours

Scroll right to see more
 ConditionsComfort  
Time TempWeatherWind HumidityBarometerVisibility
7:20 pm
Mon, Apr 24
48 °FBroken clouds.15 mph71%29.95 "HgN/A
6:50 pm50 °FScattered clouds.16 mph71%29.95 "HgN/A
6:20 pm50 °FScattered showers. Scattered clouds.13 mph71%29.95 "HgN/A
5:50 pm50 °FPartly sunny.16 mph71%29.95 "HgN/A
5:20 pm54 °FPassing clouds.15 mph67%29.95 "HgN/A
4:50 pm52 °FPassing clouds.15 mph82%29.95 "HgN/A
4:20 pm54 °FOvercast.13 mph67%29.95 "HgN/A
3:50 pm52 °FBroken clouds.13 mph77%29.95 "HgN/A
3:20 pm54 °FScattered clouds.15 mph72%29.98 "HgN/A
2:50 pm52 °FScattered clouds.16 mph77%29.98 "HgN/A
2:20 pm52 °FPartly sunny.17 mph77%29.98 "HgN/A
1:50 pm52 °FPassing clouds.16 mph82%30.01 "HgN/A
1:20 pm52 °FScattered clouds.15 mph88%30.01 "HgN/A
12:50 pm52 °FScattered clouds.15 mph88%30.01 "HgN/A
12:20 pm52 °FBroken clouds.15 mph88%30.01 "HgN/A
11:50 am52 °FBroken clouds.15 mph88%30.04 "HgN/A
11:20 am50 °FBroken clouds.14 mph94%30.04 "HgN/A
10:50 am50 °FBroken clouds.12 mph88%30.04 "HgN/A
10:20 am50 °FBroken clouds.9 mph88%30.07 "HgN/A
9:50 am50 °FMostly cloudy.9 mph88%30.07 "HgN/A
9:20 am48 °FBroken clouds.7 mph87%30.07 "HgN/A
8:50 am48 °FPassing clouds.9 mph87%30.07 "HgN/A
8:20 am48 °FMore clouds than sun.8 mph82%30.07 "HgN/A
7:50 am46 °FOvercast.8 mph82%30.07 "HgN/A
7:20 am46 °FOvercast.7 mph82%30.07 "HgN/A
6:50 am46 °FOvercast.6 mph87%30.09 "HgN/A
6:20 am46 °FOvercast.6 mph87%30.09 "HgN/A
5:50 am46 °FOvercast.7 mph82%30.09 "HgN/A
4:50 am45 °FQuite cool.6 mph87%30.09 "HgN/A
3:50 am43 °FQuite cool.5 mph87%30.12 "HgN/A
3:20 am45 °FQuite cool.5 mph81%30.12 "HgN/A
2:50 am43 °FQuite cool.5 mph93%30.12 "HgN/A
2:20 am43 °FQuite cool.6 mph100%30.15 "HgN/A
1:50 am45 °FQuite cool.6 mph100%30.15 "HgN/A
1:20 am45 °FQuite cool.5 mph100%30.15 "HgN/A
12:50 am45 °FQuite cool.5 mph100%30.15 "HgN/A
12:20 am45 °FQuite cool.5 mph100%30.18 "Hg5 mi
11:50 pm
Sun, Apr 23
46 °FCool.5 mph93%30.18 "HgN/A
11:20 pm46 °FCool.7 mph100%30.18 "HgN/A
10:50 pm46 °FCool.7 mph93%30.18 "HgN/A
9:50 pm46 °FCool.8 mph100%30.21 "HgN/A
9:20 pm48 °FCool.9 mph94%30.21 "HgN/A
8:50 pm48 °FCool.8 mph87%30.21 "HgN/A
Weather by CustomWeather, © 2017

See weather overviewHow to use our weather pages